User: anonymous   Login
Location: Unspecified
(0.0000°N, 0.0000°E)
Time: 09:00:22
(UTC+00:00)
Language:

STARLINK-5410 - Orbit

View from above orbital plane
View from above orbital plane
View from above satellite
View from above satellite

Ground track
Ground track

The orbit is defined by the following mean orbital elements,

1 54807U          26144.99100094 +.00000000 +00000-0 -13179-4 0 00002
2 54807  53.2155  46.2207 0001338  94.3009 265.8136 15.08844190    09
Epoch (UTC): 24 May 2026 23:47:02
Eccentricity: 0.0001338
inclination: 53.2155°
perigee height: 539 km
apogee height: 541 km
right ascension of ascending node: 46.2207°
argument of perigee: 94.3009°
revolutions per day: 15.08844190
mean anomaly at epoch: 265.8136°

The dashed part of the orbit path shows where the satellite is in the earth's shadow,  

DLR